Hourly Data Report for October 26, 2015

All times are specified in Local Standard Time (LST). Add 1 hour to adjust for Daylight Saving Time where and when it is observed.

KAMLOOPS A
BRITISH COLUMBIA

50°42'09.000" N
120°26'55.000" W
345.30 m
1163781
71887
YKA

Download Data

Hourly Data (October 2015)
Hourly Data Report for October 26, 2015
Temp Definition
°C
Dew Point Temp Definition
°C
Rel Hum Definition
%
Wind Dir Definition
10's deg

Wind Spd Definition
km/h
Visibility Definition
km
Stn Press Definition
kPa
Hmdx Definition


Wind Chill Definition


Weather Definition


TIME
00:00 Legend Double Dagger 8.4 1.3 61 11 17 64.4 97.03     Rain Showers
01:00 Legend Double Dagger 6.7 3.3 79 11 10 64.4 97.05     Rain Showers
02:00 Legend Double Dagger 6.2 4.0 86 6 8 32.2 97.10     Rain Showers
03:00 Legend Double Dagger 5.8 4.0 88 8 5 32.2 97.13     Rain Showers
04:00 Legend Double Dagger 5.9 4.1 88 5 4 32.2 97.13     Rain Showers
05:00 Legend Double Dagger 5.7 3.9 88 10 13 32.2 97.12     LegendNANA
06:00 Legend Double Dagger 5.1 3.8 91 6 6 48.3 97.13     LegendNANA
07:00 Legend Double Dagger 4.8 3.9 94 4 4 48.3 97.15     Mostly Cloudy
08:00 Legend Double Dagger 5.6 4.6 93 36 2 48.3 97.17     LegendNANA
09:00 Legend Double Dagger 6.3 4.6 89 36 2 48.3 97.21     LegendNANA
10:00 Legend Double Dagger 7.4 4.7 83 28 4 48.3 97.23     Cloudy
11:00 Legend Double Dagger 8.3 5.6 83 23 5 48.3 97.23     LegendNANA
12:00 Legend Double Dagger 9.9 6.1 77 26 4 48.3 97.19     LegendNANA
13:00 Legend Double Dagger 10.6 6.0 73 29 16 64.4 97.22     Mostly Cloudy
14:00 Legend Double Dagger 9.1 7.1 87 26 14 24.1 97.30     Rain Showers
15:00 Legend Double Dagger 9.6 7.1 84 13 3 48.3 97.40     LegendNANA
16:00 Legend Double Dagger 9.8 5.2 73 27 21 48.3 97.47     Mostly Cloudy
17:00 Legend Double Dagger 9.4 2.5 62 29 30 48.3 97.63     LegendNANA
18:00 Legend Double Dagger 8.6 1.5 61 28 13 64.4 97.74     LegendNANA
19:00 Legend Double Dagger 8.2 -0.8 53 30 14 64.4 97.84     Mostly Cloudy
20:00 Legend Double Dagger 8.1 0.1 57 30 12 64.4 97.87     LegendNANA
21:00 Legend Double Dagger 8.0 0.0 57 31 15 64.4 97.95     LegendNANA
22:00 Legend Double Dagger 8.0 -0.7 54 29 26 64.4 98.03     Mostly Cloudy
23:00 Legend Double Dagger 7.3 -0.4 58 29 18 64.4 98.10     LegendNANA

Notes on Data Quality.

Legend

  • E = Estimated
  • M = Missing
  • NA = Not Available
  • ‡ = Partner data that is not subject to review by the National Climate Archives
Date modified: